This is the latest recevied weather packets stored in our database for station/object DB0FN-10. If no packets are shown the sender has not sent any weather packets the latest 10 day(s).
| Time | Temp. | Humidity | Pressure | Rain* | Wind** | Luminosity | Snow |
|---|---|---|---|---|---|---|---|
| 1777626963 | 17.22° C | 34% | 1028.8 hPa | - | - | - | - |
| 1777626063 | 17.22° C | 31% | 1028.7 hPa | - | - | - | - |
| 1777625163 | 17.22° C | 30% | 1028.6 hPa | - | - | - | - |
| 1777624263 | 16.67° C | 29% | 1028.6 hPa | - | - | - | - |
| 1777623363 | 16.67° C | 31% | 1028.5 hPa | - | - | - | - |
| 1777622463 | 16.11° C | 30% | 1028.5 hPa | - | - | - | - |
| 1777621563 | 16.11° C | 31% | 1028.5 hPa | - | - | - | - |
| 1777620663 | 15.56° C | 29% | 1028.5 hPa | - | - | - | - |
| 1777619763 | 15.56° C | 29% | 1028.4 hPa | - | - | - | - |
| 1777618863 | 14.44° C | 30% | 1028.4 hPa | - | - | - | - |
| 1777617963 | 13.33° C | 30% | 1028.2 hPa | - | - | - | - |
| 1777617062 | 13.33° C | 32% | 1028.1 hPa | - | - | - | - |
| 1777616162 | 12.78° C | 30% | 1027.9 hPa | - | - | - | - |
| 1777615262 | 12.78° C | 30% | 1027.8 hPa | - | - | - | - |
| 1777614362 | 12.22° C | 30% | 1027.8 hPa | - | - | - | - |
| 1777613462 | 12.78° C | 29% | 1027.7 hPa | - | - | - | - |
| 1777612562 | 12.78° C | 29% | 1027.5 hPa | - | - | - | - |
| 1777611662 | 12.22° C | 29% | 1027.4 hPa | - | - | - | - |
| 1777610762 | 12.22° C | 28% | 1027.2 hPa | - | - | - | - |
| 1777609862 | 11.67° C | 28% | 1027.1 hPa | - | - | - | - |
| 1777608962 | 12.22° C | 27% | 1027.1 hPa | - | - | - | - |
| 1777608062 | 9.44° C | 30% | 1027 hPa | - | - | - | - |
| 1777607162 | 10.56° C | 28% | 1026.9 hPa | - | - | - | - |
| 1777606262 | 11.11° C | 28% | 1026.8 hPa | - | - | - | - |
| 1777605362 | 11.11° C | 27% | 1026.8 hPa | - | - | - | - |
* Rain since midnight (hover to see other rain measurements)
** Current wind speed in m/s (hover to see current wind gust speed)